[[[{"header":{"parameterUnit":"kt","parameterCategory":2,"dx":1,"dy":1,"la1":30.253999710083008,"la2":30.299108505249023,"lo1":-89.0895004272461,"lo2":-89.04439544677734,"nx":28,"ny":28,"refTime":"2022-09-25T21:00:00:Z","depth":0,"parameterNumber":1,"parameterNumberName":"U-component_of_WINDS"},"data":[-5.1345,-5.1423,-5.1407,-5.1488,-5.1487,-5.154,-5.1553,-5.1569,-5.1577,-5.1638,-5.1669,-5.1661,-5.1662,-5.1696,-5.1729,-5.1724,-5.174,-5.1779,-5.1767,-5.1607,-5.1583,-5.1561,-5.1542,-5.1782,-5.1782,-5.1935,-5.1936,-5.1937,-5.1228,-5.1228,-5.1266,-5.1293,-5.1325,-5.1278,-5.1294,-5.1325,-5.1373,-5.1384,-5.1414,-5.1466,-5.1505,-5.1493,-5.1527,-5.1562,-5.1542,-5.1573,-5.157,-5.1571,-5.1399,-5.1379,-5.1588,-5.1588,-5.1588,-5.1588,-5.1588,-5.1588,-5.101,-5.1058,-5.1064,-5.1106,-5.1114,-5.1132,-5.1174,-5.1163,-5.12,-5.1234,-5.1207,-5.1261,-5.1269,-5.1302,-5.1309,-5.135,-5.1313,-5.1342,-5.1349,-5.1357,-5.1368,-5.1151,-5.1355,-5.1354,-5.1354,-5.1353,-5.1353,0,-5.0847,-5.083,-5.0866,-5.0897,-5.0926,-5.0949,-5.0966,-5.0992,-5.095,-5.0983,-5.1028,-5.1052,-5.1098,-5.1138,-5.1166,-5.1168,-5.1122,-5.1115,-5.1135,-5.115,-5.1159,-5.1156,-5.0877,-5.111,-5.1108,-5.1106,-5.1105,-5.1104,-5.0627,-5.0684,-5.0683,-5.071,-5.0716,-5.0761,-5.0784,-5.0743,-5.077,-5.0785,-5.0829,-5.0869,-5.0899,-5.0974,-5.096,-5.0994,-5.0972,-5.1063,-5.0977,-5.0988,-5.0974,-5.0972,-5.0977,-5.1081,-5.1084,-5.1087,-5.1089,0,-5.0505,-5.0478,-5.0561,-5.0554,-5.0554,-5.0616,-5.061,-5.0656,-5.0639,-5.0699,-5.0711,-5.0686,-5.0731,-5.0701,-5.0747,-5.073,-5.0831,-5.0809,-5.0828,-5.0822,-5.0901,-5.0895,-5.1161,-5.1194,-5.0944,-5.0946,-5.0949,0,-5.0307,-5.0384,-5.0339,-5.0389,-5.0473,-5.043,-5.0513,-5.0508,-5.0513,-5.056,-5.0503,-5.0549,-5.0504,-5.0545,-5.052,-5.0597,-5.0606,-5.0598,-5.0591,-5.0604,-5.0605,-5.0618,-5.0607,-5.0571,-5.057,-5.0569,-5.0567,0,-5.012,-5.0186,-5.0266,-5.0277,-5.0278,-5.0316,-5.0318,-5.0324,-5.0348,-5.0373,-5.0387,-5.042,-5.0438,-5.0464,-5.0432,-5.0375,-5.0526,-5.044,-5.0517,-5.0519,-5.0554,-5.0552,-5.0794,-5.0566,-5.0565,-5.0565,-5.0565,0,-4.9956,-4.9983,-5.0104,-5.0103,-5.0122,-5.0175,-5.0204,-5.0243,-5.0253,-5.0241,-5.026,-5.0219,-5.0284,-5.0202,-5.029,-5.0225,-5.0246,-5.0244,-5.0248,-5.0254,-5.0163,-5.0304,-5.0537,-5.0561,-5.0257,-5.0254,-5.0252,0,-4.9749,-4.9864,-4.9828,-4.9944,-4.9993,-4.9925,-4.9983,-4.9994,-4.9983,-5.0022,-5.0009,-5.0055,-4.9987,-4.9997,-5.0045,-5.0034,-5.0119,-5.0021,-5.0079,-5.0082,-5.0079,-5.0293,-5.0335,-5.0489,-5.0218,-5.0222,-5.0224,0,-4.9586,-4.9586,-4.9609,-4.962,-4.9628,-4.9668,-4.9735,-4.9771,-4.9799,-4.9818,-4.9873,-4.9936,-4.9887,-4.9905,-4.9875,-4.9926,-5.006,-4.9867,-4.9867,-4.9904,-5.0199,-5.0239,-5.0265,-5.0028,-5.0032,-5.0035,-5.0198,0,-4.9346,-4.94,-4.9461,-4.9487,-4.9513,-4.9584,-4.9553,-4.9585,-4.9553,-4.954,-4.962,-4.9621,-4.9658,-4.9679,-4.9649,-4.9776,-4.975,-4.9698,-4.9617,-4.9757,-4.981,-4.9831,-4.954,-4.9538,-4.9535,-4.9534,0,0,-4.9155,-4.9232,-4.919,-4.9254,-4.9274,-4.9203,-4.9281,-4.9293,-4.9318,-4.9333,-4.9287,-4.9377,-4.9381,-4.9481,-4.9522,-4.9537,-4.9557,-4.9509,-4.969,-4.9708,-4.9724,-4.9781,-4.9804,-4.953,-4.9529,-4.9528,-4.9528,0,-4.9061,-4.9067,-4.9145,-4.9154,-4.9167,-4.9149,-4.9168,-4.9168,-4.9163,-4.9241,-4.9182,-4.9226,-4.93,-4.9311,-4.9327,-4.9496,-4.9449,-4.9509,-4.9611,-4.9669,-4.969,-4.9708,-4.9768,-4.9791,-4.9522,-4.9523,-4.9523,0,-4.8895,-4.8895,-4.893,-4.8972,-4.898,-4.9032,-4.8938,-4.8998,-4.9036,-4.8956,-4.9035,-4.9032,-4.9045,-4.9144,-4.9187,-4.9147,-4.9354,-4.9283,-4.9296,-4.93,-4.9355,-4.938,-4.9402,-4.9113,-4.9111,-4.911,0,0,-4.8819,-4.8868,-4.8856,-4.8949,-4.8958,-4.8933,-4.8957,-4.8928,-4.8941,-4.8947,-4.8943,-4.8957,-4.8999,-4.9028,-4.9066,-4.9179,-4.9178,-4.9234,-4.9253,-4.9269,-4.9282,-4.9341,-4.9366,-4.9105,-4.9105,-4.9105,0,0,-4.8782,-4.8771,-4.8737,-4.8841,-4.8856,-4.885,-4.8909,-4.8866,-4.8897,-4.8886,-4.884,-4.8842,-4.8933,-4.8933,-4.8871,-4.9036,-4.8956,-4.897,-4.9033,-4.9057,-4.9076,-4.9075,-4.8776,0,0,0,0,0,-4.8671,-4.8772,-4.8741,-4.8754,-4.8808,-4.8867,-4.8874,-4.8838,-4.8782,-4.8829,-4.8818,-4.8766,-4.889,-4.8834,-4.8847,-4.8918,-4.9042,-4.9053,-4.9064,-4.9172,-4.9197,-4.9218,0,0,0,0,0,0,-4.8675,-4.8691,-4.8738,-4.8738,-4.8749,-4.8863,-4.876,-4.8753,-4.8776,-4.8765,-4.877,-4.8767,-4.8737,-4.8825,-4.8837,-4.8905,-4.8772,-4.9047,-4.9056,-4.9065,-4.918,-4.9201,-4.9219,0,0,0,0,0,-4.8679,-4.8692,-4.8787,-4.8736,-4.8746,-4.8723,-4.8756,-4.875,-4.8767,-4.875,-4.8745,-4.8738,-4.874,-4.8748,-4.8832,-4.89,-4.8763,-4.8768,-4.9053,-4.906,-4.9067,-4.919,0,0,0,0,0,0,-4.8681,-4.8686,-4.8788,-4.879,-4.8695,-4.8715,-4.8717,-4.8747,-4.875,-4.8746,-4.8715,-4.8706,-4.8744,-4.8749,-4.8756,-4.89,-4.8755,-4.876,-4.8763,-4.9058,-4.9064,-4.907,0,0,0,0,0,0,-4.8679,-4.8688,-4.8789,-4.8739,-4.8735,-4.8709,-4.8711,-4.8777,-4.8751,-4.8714,-4.8707,-4.8711,-4.8733,-4.875,-4.8755,-4.8859,-4.875,-4.8755,-4.8758,-4.876,-4.9063,-4.9068,0,0,0,0,0,0,-4.8682,-4.869,-4.8738,-4.8735,-4.8731,-4.8747,-4.8766,-4.8823,-4.8708,-4.8715,-4.8697,-4.8691,-4.8736,-4.874,-4.8755,-4.8858,-4.8859,-4.875,-4.8753,-4.8755,-4.8757,0,0,0,0,0,0,0,-4.8684,-4.8641,-4.8778,-4.8732,-4.8728,-4.8805,-4.8806,-4.8806,-4.8707,-4.8702,-4.8698,-4.8694,-4.8723,-4.8728,-4.8733,-4.8856,0,0,-4.8749,-4.8752,0,0,0,0,0,0,0,0,-4.8636,-4.8639,-4.8778,-4.8778,-4.8778,-4.8806,-4.8806,-4.8806,-4.8706,-4.8702,-4.8699,-4.8695,-4.8724,-4.8728,-4.8733,0,0,0,0,0,0,0,0,0,0,0,0,0,0,0,-4.8778,-4.8778,0,-4.8806,-4.8806,-4.8806,-4.8706,-4.8702,-4.8699,-4.8697,-4.8725,-4.8729,-4.8732,0,0,0,0,0,0,0,0,0,0,0,0,0,0,0,0,0,0,0,0,0,0,0,0,0,0,0,0,0,0,0,0,0,0,0,0,0,0,0,0,0,0,0,0,0,0,0,0,0,0,0,0,0,0,0,0,0,0,0,0,0,0,0,0,0,0,0,0,0]}],[{"header":{"parameterUnit":"kt","parameterCategory":2,"dx":1,"dy":1,"la1":30.253999710083008,"la2":30.299108505249023,"lo1":-89.0895004272461,"lo2":-89.04439544677734,"nx":28,"ny":28,"refTime":"2022-09-25T21:00:00:Z","depth":0,"parameterNumber":2,"parameterNumberName":"V-component_of_WINDS"},"data":[-14.127,-14.1402,-14.1404,-14.1553,-14.158,-14.1681,-14.1717,-14.1762,-14.1798,-14.1916,-14.1982,-14.1993,-14.2026,-14.2103,-14.2172,-14.2174,-14.2204,-14.2251,-14.2245,-14.2038,-14.2009,-14.1981,-14.1951,-14.2258,-14.2258,-14.246,-14.2462,-14.2463,-14.1121,-14.1151,-14.123,-14.1308,-14.1375,-14.1332,-14.1388,-14.1446,-14.1536,-14.158,-14.1646,-14.1747,-14.1826,-14.1841,-14.1915,-14.1973,-14.1954,-14.1993,-14.1988,-14.1993,-14.1772,-14.1741,-14.2007,-14.2007,-14.2007,-14.2007,-14.2007,-14.2007,-14.0851,-14.093,-14.0978,-14.1064,-14.1102,-14.1153,-14.1226,-14.124,-14.1314,-14.1395,-14.1377,-14.1477,-14.1518,-14.1604,-14.1632,-14.1707,-14.1663,-14.1703,-14.1713,-14.1724,-14.1737,-14.1447,-14.1719,-14.1718,-14.1718,-14.1717,-14.1716,0,-14.0653,-14.065,-14.0725,-14.0802,-14.0864,-14.0921,-14.0973,-14.1018,-14.1003,-14.1065,-14.1153,-14.1203,-14.13,-14.1381,-14.1448,-14.1467,-14.1422,-14.1417,-14.1445,-14.1456,-14.1458,-14.1458,-14.1098,-14.1409,-14.1406,-14.1404,-14.1402,-14.1401,-14.0381,-14.0471,-14.052,-14.0573,-14.0602,-14.0686,-14.0736,-14.0716,-14.0768,-14.0827,-14.0894,-14.0975,-14.1039,-14.1176,-14.1183,-14.1254,-14.1232,-14.1352,-14.1242,-14.125,-14.1234,-14.1229,-14.1238,-14.1373,-14.1377,-14.138,-14.1382,0,-14.0227,-14.0227,-14.0366,-14.0404,-14.0416,-14.0511,-14.0541,-14.0615,-14.0617,-14.072,-14.0742,-14.0744,-14.0829,-14.0817,-14.0909,-14.09,-14.1052,-14.1029,-14.1039,-14.1033,-14.1139,-14.1129,-14.1484,-14.1529,-14.1211,-14.1214,-14.1217,0,-13.9994,-14.0112,-14.0104,-14.0185,-14.0316,-14.0293,-14.0421,-14.0436,-14.0471,-14.0551,-14.05,-14.0576,-14.0548,-14.0622,-14.0608,-14.073,-14.0747,-14.0747,-14.0741,-14.0751,-14.0752,-14.0776,-14.0761,-14.0726,-14.0724,-14.0722,-14.0721,0,-13.9753,-13.9886,-14.0018,-14.0047,-14.0097,-14.0158,-14.0181,-14.0219,-14.0266,-14.0324,-14.0354,-14.0423,-14.0461,-14.0514,-14.0496,-14.0422,-14.0644,-14.0539,-14.0643,-14.0644,-14.0692,-14.0689,-14.1007,-14.0719,-14.0718,-14.0718,-14.0717,0,-13.9563,-13.9627,-13.9818,-13.9857,-13.9892,-13.9977,-14.0046,-14.0116,-14.0159,-14.0156,-14.0201,-14.0165,-14.027,-14.0167,-14.0311,-14.022,-14.0259,-14.0268,-14.0276,-14.0283,-14.0167,-14.0348,-14.0653,-14.0685,-14.0292,-14.0289,-14.0285,0,-13.9288,-13.9479,-13.9461,-13.964,-13.9727,-13.9665,-13.9758,-13.9798,-13.9803,-13.9874,-13.9877,-13.9957,-13.9877,-13.99,-13.9973,-13.9978,-14.0096,-13.9962,-14.0061,-14.0065,-14.0053,-14.0334,-14.0382,-14.0588,-14.024,-14.0245,-14.0248,0,-13.9074,-13.9135,-13.9168,-13.92,-13.9251,-13.9321,-13.9428,-13.9504,-13.9553,-13.9601,-13.9689,-13.9801,-13.9745,-13.9783,-13.9758,-13.9835,-14.0016,-13.9764,-13.9764,-13.981,-14.0215,-14.0261,-14.0296,-13.9982,-13.9988,-13.9992,-14.0212,0,-13.8789,-13.8883,-13.8973,-13.9045,-13.9098,-13.9209,-13.9198,-13.9254,-13.9227,-13.9228,-13.9356,-13.9382,-13.9454,-13.949,-13.9462,-13.9642,-13.9609,-13.9548,-13.9445,-13.9629,-13.9701,-13.9731,-13.9339,-13.9336,-13.9333,-13.9331,0,0,-13.8526,-13.866,-13.8635,-13.8738,-13.8781,-13.8714,-13.8833,-13.8865,-13.8932,-13.8962,-13.8905,-13.9066,-13.9088,-13.9244,-13.93,-13.9329,-13.936,-13.9295,-13.9541,-13.9565,-13.9587,-13.9664,-13.9695,-13.9326,-13.9325,-13.9324,-13.9324,0,-13.8419,-13.845,-13.8569,-13.8603,-13.8652,-13.8648,-13.8677,-13.8711,-13.8717,-13.8842,-13.8781,-13.8855,-13.8982,-13.9015,-13.9048,-13.9277,-13.9225,-13.93,-13.9428,-13.9515,-13.9543,-13.9566,-13.9648,-13.9678,-13.9317,-13.9317,-13.9318,0,-13.8207,-13.8235,-13.8291,-13.8385,-13.8415,-13.8504,-13.8395,-13.8492,-13.8556,-13.8471,-13.8596,-13.8608,-13.8648,-13.8797,-13.8863,-13.8812,-13.9103,-13.9007,-13.9023,-13.903,-13.9113,-13.9146,-13.9175,-13.8793,-13.8791,-13.8789,0,0,-13.8115,-13.8202,-13.8223,-13.8361,-13.8385,-13.838,-13.8424,-13.8401,-13.8442,-13.8458,-13.8472,-13.8511,-13.8584,-13.8633,-13.8701,-13.8866,-13.8871,-13.8943,-13.8968,-13.8988,-13.9006,-13.9095,-13.9127,-13.8783,-13.8782,-13.8782,0,0,-13.807,-13.8102,-13.8068,-13.8227,-13.8269,-13.8296,-13.838,-13.8337,-13.8398,-13.8383,-13.8345,-13.8353,-13.8492,-13.8504,-13.8418,-13.8663,-13.8562,-13.8582,-13.865,-13.8681,-13.8705,-13.8699,-13.8306,0,0,0,0,0,-13.7955,-13.8098,-13.8067,-13.8092,-13.8208,-13.8314,-13.8328,-13.8302,-13.8232,-13.8299,-13.8304,-13.8245,-13.845,-13.8373,-13.8397,-13.8492,-13.8697,-13.8712,-13.8727,-13.8853,-13.8886,-13.8913,0,0,0,0,0,0,-13.7964,-13.7995,-13.8063,-13.8097,-13.8122,-13.8309,-13.8184,-13.818,-13.8224,-13.8212,-13.8246,-13.8246,-13.8223,-13.8359,-13.8381,-13.8472,-13.8298,-13.8703,-13.8716,-13.8728,-13.8864,-13.8891,-13.8914,0,0,0,0,0,-13.7972,-13.7996,-13.819,-13.8094,-13.8117,-13.8117,-13.8178,-13.8174,-13.8207,-13.8214,-13.8212,-13.8184,-13.8226,-13.8242,-13.8372,-13.8463,-13.8283,-13.8292,-13.8712,-13.8722,-13.8731,-13.8877,0,0,0,0,0,0,-13.7977,-13.7993,-13.8194,-13.82,-13.8038,-13.8106,-13.8116,-13.8169,-13.8206,-13.8206,-13.8149,-13.8139,-13.8231,-13.8242,-13.8255,-13.8462,-13.8271,-13.8279,-13.8285,-13.8719,-13.8727,-13.8734,0,0,0,0,0,0,-13.7979,-13.7998,-13.8197,-13.8128,-13.8125,-13.8096,-13.8105,-13.8209,-13.8207,-13.8139,-13.8131,-13.8144,-13.821,-13.8243,-13.8252,-13.8417,-13.8262,-13.827,-13.8275,-13.8279,-13.8726,-13.8732,0,0,0,0,0,0,-13.7986,-13.8003,-13.8126,-13.8124,-13.8122,-13.8183,-13.8187,-13.8306,-13.8152,-13.8138,-13.8137,-13.813,-13.8212,-13.8221,-13.8251,-13.8412,-13.8415,-13.8262,-13.8267,-13.8271,-13.8274,0,0,0,0,0,0,0,-13.7992,-13.7891,-13.8161,-13.8121,-13.8119,-13.8253,-13.8254,-13.8256,-13.815,-13.8144,-13.8138,-13.8133,-13.8216,-13.8225,-13.8234,-13.8408,0,0,-13.8261,-13.8265,0,0,0,0,0,0,0,0,-13.7884,-13.7889,-13.8161,-13.8162,-13.8163,-13.8253,-13.8254,-13.8255,-13.8149,-13.8144,-13.814,-13.8135,-13.8219,-13.8226,-13.8233,0,0,0,0,0,0,0,0,0,0,0,0,0,0,0,-13.8161,-13.8162,0,-13.8253,-13.8254,-13.8255,-13.8148,-13.8144,-13.8141,-13.8137,-13.8221,-13.8227,-13.8232,0,0,0,0,0,0,0,0,0,0,0,0,0,0,0,0,0,0,0,0,0,0,0,0,0,0,0,0,0,0,0,0,0,0,0,0,0,0,0,0,0,0,0,0,0,0,0,0,0,0,0,0,0,0,0,0,0,0,0,0,0,0,0,0,0,0,0,0,0]}]]]